FW7539 Weather Reports


Display with metric or nautical units.
time (UTC)temp
F
wind
direction
speed
MPH
gust
MPH
rain 1hr
in
rain 24hr
in
rain mn
in
humidity
%
barometer
mb
20260902051446 77 0 0.0 0.0 0.00 0.00 0.00 78 1016.6
20260902050946 77 0 0.0 0.0 0.00 0.00 0.00 78 1016.6
20260902050446 77 0 0.0 0.0 0.00 0.00 0.00 78 1016.6
20260902045947 77 0 0.0 0.0 0.00 0.00 0.00 78 1016.6
20260902045446 77 293 0.0 1.0 0.00 0.00 0.00 78 1016.6
20260902044946 77 293 0.0 1.0 0.00 0.00 0.00 78 1016.5
20260902044446 77 293 0.0 1.0 0.00 0.00 0.00 77 1016.6
20260902043946 77 0 0.0 0.0 0.00 0.00 0.00 77 1016.5
20260902043446 78 0 0.0 0.0 0.00 0.00 0.00 77 1016.5
20260902042947 78 0 0.0 0.0 0.00 0.00 0.00 77 1016.5
20260902042508 78 0 0.0 0.0 0.00 0.00 0.00 76 1016.6
20260902042008 78 0 0.0 0.0 0.00 0.00 0.00 77 1016.6
20260902041447 78 0 0.0 0.0 0.00 0.00 0.00 76 1016.6
20260902040947 78 0 0.0 0.0 0.00 0.00 0.00 76 1016.6
20260902040447 78 0 0.0 0.0 0.00 0.00 0.00 76 1016.6
20260902040007 79 0 0.0 0.0 0.00 0.00 0.00 75 1016.6
20260902035446 79 0 0.0 0.0 0.00 0.00 0.00 74 1016.7
20260902035007 79 293 0.0 1.0 0.00 0.00 0.00 74 1016.6
20260902034507 79 293 0.0 1.0 0.00 0.00 0.00 73 1016.6
20260902033946 80 293 0.0 1.0 0.00 0.00 0.00 73 1016.7
20260902033447 80 293 0.0 1.0 0.00 0.00 0.00 73 1016.7
20260902032947 80 293 0.0 1.0 0.00 0.00 0.00 73 1016.6
20260902032447 80 293 0.0 1.0 0.00 0.00 0.00 73 1016.6
20260902031947 81 293 0.0 1.0 0.00 0.00 0.00 72 1016.6
20260902031447 81 293 0.0 1.0 0.00 0.00 0.00 70 1016.6
20260902030947 82 293 0.0 2.0 0.00 0.00 0.00 70 1016.6
20260902030447 82 293 0.0 2.0 0.00 0.00 0.00 69 1016.5
20260902025946 82 293 0.0 2.0 0.00 0.00 0.00 69 1016.5
20260902025446 82 293 0.0 2.0 0.00 0.00 0.00 68 1016.6
20260902024946 82 293 0.0 2.0 0.00 0.00 0.00 69 1016.7
20260902024446 82 258 0.0 3.0 0.00 0.00 0.00 68 1016.6
20260902023947 82 243 1.0 3.0 0.00 0.00 0.00 69 1016.6
20260902023447 82 235 0.0 3.0 0.00 0.00 0.00 69 1016.5
20260902022947 81 234 0.0 1.0 0.00 0.00 0.00 70 1016.5
20260902022447 81 234 0.0 1.0 0.00 0.00 0.00 70 1016.6
20260902021947 81 234 0.0 1.0 0.00 0.00 0.00 70 1016.6
20260902021508 81 238 0.0 2.0 0.00 0.00 0.00 70 1016.5
20260902020947 81 263 1.0 2.0 0.00 0.00 0.00 70 1016.5
20260902020447 81 279 0.0 2.0 0.00 0.00 0.00 71 1016.5
20260902015947 81 288 0.0 1.0 0.00 0.00 0.00 71 1016.5
20260902015447 81 288 0.0 1.0 0.00 0.00 0.00 71 1016.5
20260902014947 81 288 0.0 1.0 0.00 0.00 0.00 71 1016.5
20260902014447 81 288 0.0 1.0 0.00 0.00 0.00 71 1016.5
20260902013947 81 288 0.0 1.0 0.00 0.00 0.00 70 1016.5
20260902013508 81 288 0.0 1.0 0.00 0.00 0.00 71 1016.5
20260902013008 81 288 0.0 1.0 0.00 0.00 0.00 70 1016.5
20260902012446 82 288 0.0 1.0 0.00 0.00 0.00 70 1016.4
20260902011947 82 288 0.0 1.0 0.00 0.00 0.00 70 1016.3
20260902011447 82 288 0.0 1.0 0.00 0.00 0.00 70 1016.3
20260902011008 82 288 0.0 1.0 0.00 0.00 0.00 69 1016.2
20260902010447 82 288 0.0 1.0 0.00 0.00 0.00 70 1016.2
20260902010008 82 0 0.0 0.0 0.00 0.00 0.00 69 1016.1
20260902005508 82 0 0.0 0.0 0.00 0.00 0.00 68 1016.1
20260902004947 82 0 0.0 0.0 0.00 0.00 0.00 68 1016.1
20260902004447 83 0 0.0 0.0 0.00 0.00 0.00 67 1016.0
20260902003946 83 0 0.0 0.0 0.00 0.00 0.00 68 1016.0
20260902003447 84 0 0.0 0.0 0.00 0.00 0.00 66 1016.0
20260902002947 84 0 0.0 0.0 0.00 0.00 0.00 66 1016.0
20260902002447 84 0 0.0 0.0 0.00 0.00 0.00 65 1016.0
20260902001947 85 0 0.0 0.0 0.00 0.00 0.00 64 1016.0
20260902001447 85 0 0.0 0.0 0.00 0.00 0.00 63 1016.1
20260902000947 86 0 0.0 0.0 0.00 0.00 0.00 62 1016.1
20260902000508 86 0 0.0 0.0 0.00 0.00 0.00 61 1016.2
20260901235947 87 0 0.0 0.0 0.00 0.00 0.00 60 1016.2
20260901235447 88 0 0.0 0.0 0.00 0.00 0.00 60 1016.2
20260901234946 88 288 0.0 1.0 0.00 0.00 0.00 58 1016.2
20260901234447 89 288 0.0 1.0 0.00 0.00 0.00 57 1016.2
20260901233947 89 291 0.0 3.0 0.00 0.00 0.00 56 1016.2
20260901233508 90 291 0.0 3.0 0.00 0.00 0.00 55 1016.3
20260901232947 90 315 0.0 1.0 0.00 0.00 0.00 54 1016.2
20260901232447 91 315 0.0 2.0 0.00 0.00 0.00 53 1016.4
20260901231947 92 274 1.0 3.0 0.00 0.00 0.00 52 1016.4
20260901231447 92 227 1.0 3.0 0.00 0.00 0.00 50 1016.4
20260901230947 92 216 1.0 6.0 0.00 0.00 0.00 49 1016.3
20260901230508 93 233 1.0 6.0 0.00 0.00 0.00 49 1016.3
20260901225947 93 243 1.0 3.0 0.00 0.00 0.00 49 1016.3
20260901225447 93 235 1.0 3.0 0.00 0.00 0.00 48 1016.3
20260901224947 93 245 1.0 4.0 0.00 0.00 0.00 49 1016.3
20260901224446 93 240 2.0 5.0 0.00 0.00 0.00 48 1016.3
20260901223948 93 198 2.0 7.0 0.00 0.00 0.00 47 1016.3
20260901223447 93 176 2.0 7.0 0.00 0.00 0.00 47 1016.2
20260901222947 93 238 1.0 4.0 0.00 0.00 0.00 47 1016.2
20260901222447 94 215 1.0 4.0 0.00 0.00 0.00 47 1016.1
20260901222008 93 173 2.0 7.0 0.00 0.00 0.00 49 1016.2
20260901221447 93 219 2.0 7.0 0.00 0.00 0.00 47 1016.2
20260901220947 94 196 2.0 5.0 0.00 0.00 0.00 48 1016.2
20260901220447 93 165 2.0 5.0 0.00 0.00 0.00 48 1016.1
20260901215946 94 186 2.0 8.0 0.00 0.00 0.00 49 1016.1
20260901215447 94 192 2.0 8.0 0.00 0.00 0.00 47 1016.2
20260901214947 94 200 2.0 8.0 0.00 0.00 0.00 47 1016.2
20260901214447 94 169 2.0 7.0 0.00 0.00 0.00 49 1016.2
20260901213947 94 152 2.0 7.0 0.00 0.00 0.00 47 1016.1
20260901213448 94 212 2.0 7.0 0.00 0.00 0.00 45 1016.1
20260901213008 95 244 2.0 5.0 0.00 0.00 0.00 46 1016.1
20260901212447 94 240 2.0 8.0 0.00 0.00 0.00 46 1016.1
20260901211947 94 228 3.0 8.0 0.00 0.00 0.00 47 1016.2
20260901211447 94 218 2.0 6.0 0.00 0.00 0.00 47 1016.1
20260901210947 94 206 2.0 6.0 0.00 0.00 0.00 47 1016.1
20260901210447 94 188 2.0 6.0 0.00 0.00 0.00 48 1016.2
20260901205947 94 164 2.0 7.0 0.00 0.00 0.00 50 1016.2
20260901205447 94 192 2.0 12.0 0.00 0.00 0.00 47 1016.2
20260901204947 94 211 3.0 12.0 0.00 0.00 0.00 47 1016.3
20260901204447 94 202 2.0 9.0 0.00 0.00 0.00 48 1016.3
20260901203947 94 168 2.0 9.0 0.00 0.00 0.00 48 1016.4
20260901203508 94 147 3.0 8.0 0.00 0.00 0.00 48 1016.4
20260901202947 94 198 3.0 8.0 0.00 0.00 0.00 48 1016.4
20260901202448 94 227 2.0 6.0 0.00 0.00 0.00 48 1016.4
20260901201947 94 164 2.0 7.0 0.00 0.00 0.00 48 1016.4
20260901201447 94 166 3.0 9.0 0.00 0.00 0.00 48 1016.5
20260901200947 94 210 3.0 9.0 0.00 0.00 0.00 49 1016.4
20260901200447 94 230 2.0 7.0 0.00 0.00 0.00 48 1016.5
20260901200008 94 217 2.0 7.0 0.00 0.00 0.00 51 1016.5
20260901195447 94 208 3.0 6.0 0.00 0.00 0.00 49 1016.5
20260901194947 93 189 3.0 7.0 0.00 0.00 0.00 50 1016.5
20260901194508 93 174 2.0 9.0 0.00 0.00 0.00 51 1016.5
20260901193947 93 169 2.0 9.0 0.00 0.00 0.00 50 1016.7
20260901193448 93 182 2.0 8.0 0.00 0.00 0.00 52 1016.6
20260901192947 92 216 3.0 12.0 0.00 0.00 0.00 51 1016.8
20260901192447 92 220 4.0 12.0 0.00 0.00 0.00 52 1016.8
20260901191947 92 202 2.0 8.0 0.00 0.00 0.00 52 1016.8
20260901191447 92 205 2.0 9.0 0.00 0.00 0.00 52 1016.9
20260901191008 92 232 3.0 9.0 0.00 0.00 0.00 51 1017.0
20260901190508 93 250 2.0 7.0 0.00 0.00 0.00 52 1017.0
20260901185947 92 181 2.0 8.0 0.00 0.00 0.00 52 1017.1
20260901185447 92 209 3.0 8.0 0.00 0.00 0.00 52 1017.1
20260901184947 92 252 3.0 9.0 0.00 0.00 0.00 52 1017.2
20260901184447 92 242 3.0 9.0 0.00 0.00 0.00 51 1017.3
20260901184008 92 197 3.0 8.0 0.00 0.00 0.00 51 1017.3
20260901183447 92 226 2.0 7.0 0.00 0.00 0.00 55 1017.4
20260901182947 92 261 1.0 5.0 0.00 0.00 0.00 54 1017.3
20260901182447 92 255 2.0 5.0 0.00 0.00 0.00 53 1017.3
20260901182008 91 224 2.0 6.0 0.00 0.00 0.00 52 1017.3
20260901181447 91 218 2.0 8.0 0.00 0.00 0.00 54 1017.3
20260901180947 91 240 3.0 8.0 0.00 0.00 0.00 55 1017.4
20260901180447 91 179 3.0 8.0 0.00 0.00 0.00 54 1017.5
20260901175947 91 152 3.0 8.0 0.00 0.00 0.00 53 1017.5
20260901175447 91 190 3.0 8.0 0.00 0.00 0.00 51 1017.5
20260901175009 91 249 2.0 5.0 0.00 0.00 0.00 53 1017.6
20260901174508 91 259 2.0 8.0 0.00 0.00 0.00 53 1017.5
20260901174008 91 241 2.0 8.0 0.00 0.00 0.00 56 1017.6
20260901173448 91 251 2.0 8.0 0.00 0.00 0.00 58 1017.6
20260901172947 91 236 2.0 8.0 0.00 0.00 0.00 55 1017.7
20260901172447 91 202 2.0 5.0 0.00 0.00 0.00 55 1017.8
20260901172008 91 218 2.0 8.0 0.00 0.00 0.00 56 1017.8
20260901171447 90 178 3.0 11.0 0.00 0.00 0.00 58 1017.8
20260901170947 90 151 3.0 11.0 0.00 0.00 0.00 56 1017.8
20260901170447 90 202 2.0 8.0 0.00 0.00 0.00 57 1017.8
20260901170009 90 229 3.0 8.0 0.00 0.00 0.00 59 1017.8
20260901165447 90 203 3.0 10.0 0.00 0.00 0.00 57 1017.9
20260901165008 90 164 3.0 10.0 0.00 0.00 0.00 58 1018.0
20260901164447 90 187 2.0 8.0 0.00 0.00 0.00 59 1018.0
20260901164009 90 236 2.0 7.0 0.00 0.00 0.00 59 1018.0
20260901163448 90 214 2.0 7.0 0.00 0.00 0.00 59 1018.0
20260901162947 89 220 2.0 7.0 0.00 0.00 0.00 63 1018.2
20260901162447 89 233 2.0 6.0 0.00 0.00 0.00 61 1018.1
20260901161947 89 206 2.0 8.0 0.00 0.00 0.00 62 1018.0
20260901161447 88 196 3.0 8.0 0.00 0.00 0.00 60 1018.1
20260901160947 88 177 3.0 9.0 0.00 0.00 0.00 63 1018.2
20260901160447 88 173 3.0 9.0 0.00 0.00 0.00 61 1018.2
20260901155947 88 199 2.0 7.0 0.00 0.00 0.00 62 1018.2
20260901155447 88 221 3.0 9.0 0.00 0.00 0.00 62 1018.2
20260901154948 88 242 3.0 9.0 0.00 0.00 0.00 62 1018.3
20260901154447 88 235 2.0 9.0 0.00 0.00 0.00 61 1018.3
20260901154008 88 208 2.0 6.0 0.00 0.00 0.00 61 1018.3
20260901153447 87 209 2.0 7.0 0.00 0.00 0.00 63 1018.5
20260901152947 87 207 2.0 7.0 0.00 0.00 0.00 63 1018.5
20260901152448 87 214 2.0 7.0 0.00 0.00 0.00 64 1018.4
20260901151948 86 234 2.0 6.0 0.00 0.00 0.00 64 1018.5
20260901151447 86 237 3.0 10.0 0.00 0.00 0.00 66 1018.5
20260901150947 85 243 3.0 10.0 0.00 0.00 0.00 65 1018.5
20260901150509 85 229 3.0 8.0 0.00 0.00 0.00 66 1018.5
20260901145947 84 225 2.0 8.0 0.00 0.00 0.00 65 1018.4
20260901145448 84 237 2.0 6.0 0.00 0.00 0.00 67 1018.3
20260901145008 84 228 2.0 8.0 0.00 0.00 0.00 68 1018.3
20260901144447 84 236 1.0 8.0 0.00 0.00 0.00 68 1018.4
20260901143947 83 257 1.0 7.0 0.00 0.00 0.00 69 1018.3
20260901143447 83 254 2.0 7.0 0.00 0.00 0.00 68 1018.3
20260901142947 83 251 2.0 8.0 0.00 0.00 0.00 70 1018.5
20260901142448 83 261 2.0 8.0 0.00 0.00 0.00 69 1018.6
20260901141948 82 259 2.0 7.0 0.00 0.00 0.00 69 1018.8
20260901141448 82 243 1.0 5.0 0.00 0.00 0.00 72 1018.7
20260901140947 82 260 1.0 5.0 0.00 0.00 0.00 71 1018.8
20260901140447 82 253 2.0 4.0 0.00 0.00 0.00 71 1018.7
20260901140008 81 243 2.0 10.0 0.00 0.00 0.00 72 1018.7
20260901135447 81 257 2.0 10.0 0.00 0.00 0.00 71 1018.8
20260901134947 81 260 2.0 8.0 0.00 0.00 0.00 71 1018.7
20260901134448 81 246 2.0 8.0 0.00 0.00 0.00 73 1018.6
20260901133947 80 247 2.0 6.0 0.00 0.00 0.00 73 1018.5
20260901133508 80 237 2.0 7.0 0.00 0.00 0.00 73 1018.5
20260901132947 80 230 2.0 7.0 0.00 0.00 0.00 74 1018.5
20260901132447 80 229 2.0 6.0 0.00 0.00 0.00 74 1018.4
20260901132008 79 225 1.0 4.0 0.00 0.00 0.00 75 1018.4
20260901131448 79 229 1.0 4.0 0.00 0.00 0.00 76 1018.6
20260901131009 78 228 1.0 4.0 0.00 0.00 0.00 76 1018.4
20260901130448 78 186 1.0 4.0 0.00 0.00 0.00 77 1018.4
20260901125947 77 154 1.0 4.0 0.00 0.00 0.00 77 1018.5
20260901125447 77 171 1.0 3.0 0.00 0.00 0.00 78 1018.6
20260901125008 77 204 1.0 3.0 0.00 0.00 0.00 78 1018.7
20260901124447 76 200 0.0 2.0 0.00 0.00 0.00 79 1018.7
20260901123947 76 213 1.0 3.0 0.00 0.00 0.00 79 1018.7
20260901123447 76 211 1.0 3.0 0.00 0.00 0.00 79 1018.7
20260901122947 75 201 1.0 2.0 0.00 0.00 0.00 80 1018.8
20260901122449 75 205 1.0 2.0 0.00 0.00 0.00 81 1018.8
20260901121948 74 212 0.0 2.0 0.00 0.00 0.00 81 1018.7
20260901121447 74 224 0.0 2.0 0.00 0.00 0.00 82 1018.7
20260901120947 74 243 0.0 2.0 0.00 0.00 0.00 83 1018.7
20260901120508 73 243 0.0 2.0 0.00 0.00 0.00 83 1018.6
20260901115947 73 0 0.0 0.0 0.00 0.00 0.00 84 1018.5
20260901115447 73 0 0.0 0.0 0.00 0.00 0.00 84 1018.4
20260901114947 72 234 0.0 3.0 0.00 0.00 0.00 84 1018.3
20260901114447 72 234 0.0 3.0 0.00 0.00 0.00 84 1018.2
20260901113947 72 234 0.0 2.0 0.00 0.00 0.00 84 1018.2
20260901113448 72 234 0.0 2.0 0.00 0.00 0.00 84 1018.2
20260901112948 72 234 0.0 2.0 0.00 0.00 0.00 85 1018.1
20260901112448 72 234 0.0 2.0 0.00 0.00 0.00 85 1018.0
20260901111947 72 234 0.0 1.0 0.00 0.00 0.00 85 1018.0
20260901111447 72 234 0.0 1.0 0.00 0.00 0.00 85 1017.9
20260901110947 72 0 0.0 0.0 0.00 0.00 0.00 85 1017.9
20260901110508 72 0 0.0 0.0 0.00 0.00 0.00 85 1017.8
20260901105947 72 0 0.0 0.0 0.00 0.00 0.00 85 1017.7
20260901105448 72 0 0.0 0.0 0.00 0.00 0.00 85 1017.7
20260901105009 72 0 0.0 0.0 0.00 0.00 0.00 85 1017.7
20260901104448 72 0 0.0 0.0 0.00 0.00 0.00 85 1017.7
20260901103948 72 0 0.0 0.0 0.00 0.00 0.00 85 1017.7
20260901103447 72 0 0.0 0.0 0.00 0.00 0.00 85 1017.6
20260901102947 72 0 0.0 0.0 0.00 0.00 0.00 85 1017.6
20260901102448 72 0 0.0 0.0 0.00 0.00 0.00 85 1017.5
20260901101947 72 0 0.0 0.0 0.00 0.00 0.00 85 1017.5
20260901101447 72 0 0.0 0.0 0.00 0.00 0.00 85 1017.5
20260901101008 72 0 0.0 0.0 0.00 0.00 0.00 85 1017.4
20260901100448 72 0 0.0 0.0 0.00 0.00 0.00 85 1017.5
20260901095948 72 0 0.0 0.0 0.00 0.00 0.00 85 1017.4
20260901095448 72 0 0.0 0.0 0.00 0.00 0.00 84 1017.4
20260901094948 72 0 0.0 0.0 0.00 0.00 0.00 85 1017.4
20260901094447 72 0 0.0 0.0 0.00 0.00 0.00 85 1017.4
20260901093947 72 0 0.0 0.0 0.00 0.00 0.00 84 1017.4
20260901093447 72 0 0.0 0.0 0.00 0.00 0.00 84 1017.3
20260901092947 72 0 0.0 0.0 0.00 0.00 0.00 84 1017.2
20260901092448 73 0 0.0 0.0 0.00 0.00 0.00 84 1017.2
20260901091948 73 0 0.0 0.0 0.00 0.00 0.00 84 1017.3
20260901091448 73 0 0.0 0.0 0.00 0.00 0.00 84 1017.2
20260901090948 73 0 0.0 0.0 0.00 0.00 0.00 84 1017.1
20260901090447 73 0 0.0 0.0 0.00 0.00 0.00 84 1017.1
20260901085948 73 0 0.0 0.0 0.00 0.00 0.00 84 1017.0
20260901085509 73 0 0.0 0.0 0.00 0.00 0.00 84 1017.0
20260901084947 73 0 0.0 0.0 0.00 0.00 0.00 84 1016.9
20260901084447 73 0 0.0 0.0 0.00 0.00 0.00 84 1016.9
20260901083947 73 0 0.0 0.0 0.00 0.00 0.00 84 1016.8
20260901083447 74 0 0.0 0.0 0.00 0.00 0.00 83 1016.8
20260901082947 74 0 0.0 0.0 0.00 0.00 0.00 83 1016.8
20260901082448 74 0 0.0 0.0 0.00 0.00 0.00 83 1016.8
20260901081947 74 0 0.0 0.0 0.00 0.00 0.00 83 1016.8
20260901081448 74 0 0.0 0.0 0.00 0.00 0.00 83 1016.8
20260901080948 74 0 0.0 0.0 0.00 0.00 0.00 82 1016.9
20260901080448 75 0 0.0 0.0 0.00 0.00 0.00 82 1016.9
20260901075948 75 0 0.0 0.0 0.00 0.00 0.00 82 1016.8
20260901075508 75 0 0.0 0.0 0.00 0.00 0.00 81 1016.9
20260901074948 75 0 0.0 0.0 0.00 0.00 0.00 81 1016.8
20260901074448 76 0 0.0 0.0 0.00 0.00 0.00 80 1016.7
20260901073947 76 0 0.0 0.0 0.00 0.00 0.00 79 1016.6
20260901073448 76 0 0.0 0.0 0.00 0.00 0.00 79 1016.6
20260901072948 77 0 0.0 0.0 0.00 0.00 0.00 78 1016.6
20260901072448 77 0 0.0 0.0 0.00 0.00 0.00 77 1016.5
20260901071947 78 0 0.0 0.0 0.00 0.00 0.00 77 1016.5
20260901071448 78 0 0.0 0.0 0.00 0.00 0.00 76 1016.5
20260901071009 78 0 0.0 0.0 0.00 0.00 0.00 76 1016.5
20260901070448 78 234 0.0 1.0 0.00 0.00 0.00 75 1016.4
20260901065948 79 234 0.0 1.0 0.00 0.00 0.00 75 1016.3
20260901065448 79 234 0.0 2.0 0.00 0.00 0.00 75 1016.4
20260901064948 79 249 1.0 3.0 0.00 0.00 0.00 74 1016.4
20260901064447 79 246 1.0 4.0 0.00 0.00 0.00 75 1016.3
20260901063947 79 249 1.0 4.0 0.00 0.00 0.00 75 1016.1
20260901063448 78 253 0.0 4.0 0.00 0.00 0.00 75 1016.2
20260901062948 78 205 0.0 2.0 0.00 0.00 0.00 75 1016.2
20260901062447 79 252 1.0 3.0 0.00 0.00 0.00 75 1016.1
20260901061948 79 288 1.0 4.0 0.00 0.00 0.00 75 1016.2
20260901061509 79 259 1.0 4.0 0.00 0.00 0.00 75 1016.4
20260901060947 78 221 1.0 4.0 0.00 0.00 0.00 76 1016.4
20260901060448 78 231 1.0 2.0 0.00 0.00 0.00 76 1016.4
20260901060009 78 245 1.0 2.0 0.00 0.00 0.00 77 1016.3
20260901055448 78 250 0.0 2.0 0.00 0.00 0.00 77 1016.4
20260901054948 78 255 0.0 1.0 0.00 0.00 0.00 77 1016.6
20260901054509 78 257 0.0 1.0 0.00 0.00 0.00 77 1016.7
20260901053948 78 254 0.0 2.0 0.00 0.00 0.00 77 1016.8
20260901053509 78 252 0.0 2.0 0.00 0.00 0.00 77 1016.9
20260901053009 78 250 0.0 1.0 0.00 0.00 0.00 78 1016.9
20260901052448 78 229 0.0 2.0 0.00 0.00 0.00 78 1016.9
20260901052009 78 242 1.0 3.0 0.00 0.00 0.00 78 1016.8